Air Resources Laboratory banner image
Air Resources Laboratory web site National Oceanic and Atmospheric Administration (NOAA)

al roundup


Office: HUN

ASUS44 KHUN 191310
RWRHUN

WEATHER ROUNDUP FOR THE TENNESSEE VALLEY
NATIONAL WEATHER SERVICE HUNTSVILLE AL
700 AM CST MON FEB 19 2018

ALZ001>004-191400-
NORTHWEST ALABAMA

CITY           SKY/WX    TMP DP  RH WIND       PRES   REMARKS
SHOALS AIRPORT CLOUDY    59  56  89 S7        30.21R
$$

ALZ005>007-016-191400-
NORTH CENTRAL ALABAMA

CITY           SKY/WX    TMP DP  RH WIND       PRES   REMARKS
DECATUR AP     MOCLDY    58  57  97 SE9       30.22R
HUNTSVILLE AP  MOCLDY    61  60  97 S13       30.22R
MERIDIANVILLE  MOCLDY    61  58  91 S10       30.22S
REDSTONE ARSN  CLOUDY    60  59  97 S7        30.21R
VINEMONT AP    CLOUDY    58  57  96 SE6       30.25S
$$

ALZ008>010-191400-
NORTHEAST ALABAMA

CITY           SKY/WX    TMP DP  RH WIND       PRES   REMARKS
FORT PAYNE     CLOUDY    59  57  94 MISG      30.27R FOG
SCOTTSBORO AP  CLOUDY    63  63 100 S9G15     30.26R
$$

TNZ076-096-097-191400-
SOUTHEASTERN MIDDLE TENNESSEE

CITY           SKY/WX    TMP DP  RH WIND       PRES   REMARKS
TULLAHOMA      CLOUDY    61  59  94 SE6       30.21S
WINCHESTER     MOCLDY    61  59  94 S10       30.23R
$$

...SURROUNDING SITES...

CITY           SKY/WX    TMP DP  RH WIND       PRES   REMARKS
ATLANTA        DRZL/FOG  60  60 100 E10       30.33R VSB 1/2
ANNISTON       FAIR      62  59  90 E3        30.28R
BIRMINGHAM     CLOUDY    60  58  92 NE3       30.27R
CHATTANOOGA    CLOUDY    59  57  93 S7        30.28R FOG
CORINTH        CLOUDY    57  55  94 SE9       30.16R
DALTON         CLOUDY    57  55  94 CALM      30.31R
GADSDEN        CLOUDY    58  58 100 NW3       30.28R
GOLDEN TRNGL   FOG       58  57  97 S9        30.21R VSB 1/4
HALEYVILLE     CLOUDY    58  58 100 S7        30.23R FOG
JACKSON TN     MOCLDY    60  58  92 S13G20    30.10S
MEMPHIS        CLOUDY    61  59  93 S14       30.08R
NASHVILLE      MOCLDY    60  56  86 S9        30.18R
ROME           CLOUDY    60  59  96 SE6       30.30R
SAVANNAH       MOCLDY    59  57  94 S9        30.16S
SELMER         MOCLDY    59  57  94 S9G18     30.15R
TUPELO         MOCLDY    54  52  93 SE6       30.17R
TUSCALOOSA     CLOUDY    62  62 100 SE5       30.23R
$$

...GULF COAST WEATHER...

CITY           SKY/WX    TMP DP  RH WIND       PRES   REMARKS
GULFPORT       MOCLDY    69  68  96 SE8       30.16R
PASCAGOULA     MOCLDY    69  66  90 SE9       30.18R
MOBILE         CLOUDY    68  67  96 SE10      30.20R FOG
GULF SHORES    CLOUDY    68  68 100 SE9       30.20S
PENSACOLA      FAIR      69  67  93 MISG      30.21R
DESTIN         MOCLDY    68  64  87 E10       30.25
PANAMA CITY    MOCLDY    66  66 100 E7        30.26R
APPALACHICOLA  CLOUDY    67  67 100 E8        30.26R
$$



ASUS64 KHUN 191314
RTPHUN
Temperature and Precipitation Table for the TN Valley
National Weather Service Huntsville AL
714 AM CST Mon Feb 19 2018

Values represent Highs Yesterday...Lows since 6 PM LST Yesterday
and Precipitation since 6 AM LST Yesterday.

.BR HUN 0219 CS DH00/TAIRZX/DH06/TAIRZP/PPDRZZ
:
:                             MAX   MIN
:ID        LOCATION          TEMP  TEMP    PCPN
:
: First-Order /ASOS/ Sites
DCU  : Decatur Airport     :   63 /  55 /  0.01
HSV  : Huntsville Airport  :   63 /  56 /  0.01
MSL  : Muscle Shoals Arpt  :   64 /  55 /  0.07
:
: AWOS Sites
:/Reports every 20 minutes...Precip data not included/
8A0  : Albertville Airport :    M /   M /
4A9  : Fort Payne Airport  :   63 /  55 /
MDQ  : Meridianville Arpt  :   63 /  57 /
CMD  : Vinemont-Cullman AP :   62 /  54 /
BGF  : Winchester Airport  :   64 /  55 /
:
:
Values represent 24-hour Highs...Lows...and Precipitation
/since 6 AM LST Yesterday/.

.BR HUN 0219 CS DH06/TAIRZX/TAIRZN/PPDRZZ
:
:                             MAX   MIN
:ID        LOCATION          TEMP  TEMP    PCPN
:
: Climate and Forestry Stations
BHFA1: Bankhead Natl Forest:   62 /  37 /  0.00
LCXA1: Courtland Airport   :   62 /  39 /  0.04
SMCA1: Crossville Ag Stn   :   61 /  40 /  0.05
CUXA1: Cullman Ag Stn      :   63 /  38 /  0.01
MSXA1: Muscle Shoals TVA   :   62 /  41 /  0.07
RUXA1: Russellville Airport:   61 /  38 /  0.00
SCXA1: Scottsboro Airport  :   66 /  37 /  0.11
VHXA1: Valley Head Water Bd:   64 /  35 /  0.09
:
: Other Reporting Stations
UAHA1: UAHuntsville BERM   :    M /   M /     M
:
.End

These data are preliminary and have not undergone final quality
control by the National Climatic Data Center /NCDC/. Therefore...
these data are subject to revision. Final and Certified Climate data
can be accessed at www.ncdc.noaa.gov.

Additional data from across the area can be found in the daily
report at SXUS54 KHUN or HUNOSOHUN...issued around 10 AM.

$$




Office: BMX ASUS44 KBMX 191310 RWRAL ALABAMA REGIONAL WEATHER ROUNDUP NATIONAL WEATHER SERVICE BIRMINGHAM AL 700 AM CST MON FEB 19 2018 NOTE: "FAIR" INDICATES FEW OR NO CLOUDS BELOW 12,000 FEET WITH NO SIGNIFICANT WEATHER AND/OR OBSTRUCTIONS TO VISIBILITY. THE REMARK "TC" DENOTES TEMPERATURE IN DEGREES CELSIUS. ALZ001>011-014-016>018-020-191400- NORTH ALABAMA CITY SKY/WX TMP DP RH WIND PRES REMARKS MUSCLE SHOALS CLOUDY 59 56 89 S7 30.21R HUNTSVILLE MOCLDY 61 60 97 S13 30.22R DECATUR MOCLDY 58 57 97 SE9 30.22R HALEYVILLE CLOUDY 58 58 100 S7 30.23R FOG GADSDEN CLOUDY 58 58 100 NW3 30.28R $$ ALZ012-013-022-023-030>036-040>044-191400- WEST CENTRAL ALABAMA CITY SKY/WX TMP DP RH WIND PRES REMARKS TUSCALOOSA CLOUDY 62 62 100 SE5 30.23R DEMOPOLIS N/A N/A N/A N/A SE3 30.22R HAZE $$ ALZ015-024>026-033>036-041>044-191400- CENTRAL ALABAMA CITY SKY/WX TMP DP RH WIND PRES REMARKS BIRMINGHAM CLOUDY 60 58 92 NE3 30.27R MONTGOMERY MOCLDY 61 60 97 S6 30.27R SHELBY CO ARPT CLOUDY 59 59 100 CALM 30.26R FOG MAXWELL AFB MOCLDY 58 57 97 CALM 30.26R GREENVILLE CLOUDY 63 60 90 SE7 30.26R FOG SELMA PTSUNNY 59 57 94 CALM 30.24R FOG PRATTVILLE CLOUDY 56 56 100 CALM 30.27R FOG BESSEMER FOG 58 58 100 SE8 30.26R VSB 1/4 TALLADEGA FAIR 56 56 100 E3 30.28R FOG PELL CITY FOG 48 48 100 CALM 30.28R VSB 1 MARION CLOUDY 60 60 100 SE3 30.23R FOG SYLACAUGA FAIR 61 61 100 CALM 30.26S $$ ALZ019-021-028-029-037-038-045>048-191400- EAST CENTRAL ALABAMA CITY SKY/WX TMP DP RH WIND PRES REMARKS ANNISTON FAIR 62 59 90 E3 30.28R ALEXANDER CITY FOG 60 60 100 CALM 30.29R VSB 1 AUBURN CLOUDY 63 62 97 SE6 30.31R $$ ALZ051>064-191400- SOUTHWEST ALABAMA CITY SKY/WX TMP DP RH WIND PRES REMARKS MOBILE CLOUDY 68 67 96 SE10 30.20R FOG BROOKLEY FIELD CLOUDY 66 66 100 E3 30.21R EVERGREEN FOG 64 63 96 E8 30.24R VSB 1/2 $$ ALZ049-050-065>069-191400- SOUTHEAST ALABAMA CITY SKY/WX TMP DP RH WIND PRES REMARKS DOTHAN CLOUDY 65 65 100 SE12 30.32R OZARK CLOUDY 64 63 94 SE3 N/A TROY CLOUDY 60 58 92 CALM 30.28R EUFAULA CLOUDY 65 64 97 SE7 30.29R $$